Wadsworth, TX (77483)

5:58 PM CDT on March 24, 2017 (GMT -0500)
Oxea Chemicals | | Change Station
Active Advisory: Wind Advisory

Elev 66 ft 28.86 °N, 96.02 °W | Updated 12 seconds ago

Overcast
Overcast
75.4 °F
Feels Like 75 °F
N
12.4
Wind Variable Wind from SSW
Gusts 13.7 mph

Today
High -- | Low -- °F
--% Chance of Precip.
Yesterday
High -- | Low -- °F
Precip. -- in
Pressure 29.93 in
Visibility 7.0 miles
Clouds Scattered Clouds 1700 ft
Scattered Clouds 2800 ft
Overcast 6000 ft
Heat Index 75 °F
Dew Point 71 °F
Humidity 87%
Rainfall 0.00 in
Snow Depth Not available.
7:22 AM 7:37 PM
Waning Crescent, 12% visible
METAR KBYY 242235Z AUTO 16012G21KT 7SM SCT017 SCT028 OVC060 24/20 A2993 RMK AO2 T02450206
Pressure 29.93 in
Visibility 7.0 miles
Clouds Scattered Clouds 1700 ft
Scattered Clouds 2800 ft
Overcast 6000 ft
Heat Index 75 °F
Dew Point 71 °F
Humidity 87%
Rainfall 0.00 in
Snow Depth Not available.
7:22 AM 7:37 PM
Waning Crescent, 12% visible
METAR KBYY 242235Z AUTO 16012G21KT 7SM SCT017 SCT028 OVC060 24/20 A2993 RMK AO2 T02450206

Get Your Daily Forecast Email!

Thanks for signing up!

Be on the lookout for a verification email in your inbox.

You'll start receiving severe weather alerts in your inbox..

×

10-Day Weather Forecast

Almanac

Astronomy

Mar. 24, 2017 Rise Set
Actual Time
Civil Twilight
Nautical Twilight
Astronomical Twilight
Moon
Length of Visible Light
Length of Day
Tomorrow will be .
, % of the Moon is Illuminated

Today's Extremes

State Highs State Lows

Community

WunderPhotos

Upload Photos

1,962,540 photos uploaded!

WunderBlog® & News

Nearby

Air Quality

  Air Quality AQ Index Pollutant
Not available.

Snow Depth

Station Depth Elevation

Earthquake Activity

City Distance Mag. Time & Date
Minimum magnitude displayed is 2.5.

Earthquake Activity

City Distance Mag. Time & Date
Minimum magnitude displayed is 2.5.

Coastal Water Temperatures

Place Temperature

Stations

Nearby Weather Stations

Station Location Temp. Windchill Dew Point Humidity Wind Precip. Elev Updated Type
                   

Watches & Warnings

Wind Advisory
Issued: 3:15 PM CDT Mar. 24, 2017 – National Weather Service

... Wind Advisory now in effect until 8 PM CDT this evening...

* event... strong south winds between 20 and 30 mph. Gusts over 30
mph.

* Timing... through this evening.

* Impact... unsecured light weight items could be tossed about by
strong winds. Drivers on east west oriented roads should
prepare for strong cross winds and drivers of high profile
vehicles should be particularly cautious.

Precautionary/preparedness actions...

Drivers of vans... campers... trailers... and other high-profile
vehicles should be alert to the danger of these winds...
especially when driving along east to west oriented roads